Precipitable_Water
0.49 0.48 0.47 0.50 0.52 0.53 0.54 0.54 0.55 0.56 0.55 0.55 0.56 0.56 0.58 0.59 0.59 0.61 0.63 0.64 0.64 0.63 0.60 0.56 0.54 0.51 0.53 0.53 0.50 0.47 0.48 0.41 0.36 0.34 0.32 0.36 0.40 0.40 0.39 0.38 0.38 0.35 0.29 0.25 0.26 0.20 0.16 0.17 0.19 0.19 0.20 0.20 0.25 0.17 0.24 0.22 0.21 0.19 0.17 0.17 0.15 0.16 0.15 0.17 0.15 0.16 0.18 0.16 0.19 0.19 0.21 0.20 0.19 0.22 0.22 0.25 0.25 0.22 0.21 0.20 0.22 0.24 0.24 0.26 0.27 0.29 0.30 0.31
0.51 0.49 0.50 0.51 0.53 0.54 0.55 0.56 0.57 0.56 0.55 0.55 0.55 0.56 0.58 0.58 0.60 0.63 0.62 0.60 0.60 0.58 0.56 0.53 0.51 0.48 0.48 0.46 0.44 0.40 0.38 0.36 0.31 0.31 0.29 0.38 0.39 0.40 0.39 0.36 0.35 0.30 0.27 0.24 0.20 0.20 0.18 0.17 0.17 0.15 0.14 0.14 0.19 0.15 0.17 0.20 0.18 0.17 0.17 0.15 0.13 0.17 0.17 0.18 0.17 0.19 0.16 0.17 0.18 0.20 0.22 0.19 0.18 0.19 0.20 0.17 0.19 0.19 0.18 0.19 0.21 0.21 0.23 0.26 0.28 0.29 0.30 0.30
0.51 0.51 0.51 0.53 0.54 0.55 0.56 0.58 0.56 0.56 0.56 0.55 0.55 0.56 0.59 0.60 0.61 0.60 0.59 0.59 0.56 0.53 0.53 0.50 0.47 0.49 0.47 0.45 0.43 0.41 0.36 0.34 0.30 0.25 0.33 0.38 0.38 0.37 0.36 0.36 0.32 0.31 0.30 0.26 0.27 0.25 0.22 0.19 0.17 0.14 0.13 0.11 0.15 0.15 0.16 0.22 0.16 0.20 0.14 0.13 0.18 0.19 0.18 0.18 0.18 0.16 0.17 0.17 0.16 0.16 0.18 0.19 0.17 0.17 0.19 0.16 0.17 0.17 0.15 0.16 0.19 0.20 0.21 0.24 0.26 0.28 0.29 0.29
0.50 0.52 0.52 0.54 0.55 0.56 0.57 0.58 0.58 0.57 0.55 0.55 0.55 0.56 0.57 0.57 0.57 0.57 0.56 0.53 0.52 0.49 0.47 0.47 0.47 0.47 0.46 0.45 0.40 0.40 0.35 0.31 0.22 0.27 0.34 0.34 0.35 0.37 0.37 0.38 0.37 0.37 0.36 0.33 0.29 0.26 0.24 0.21 0.19 0.16 0.14 0.12 0.16 0.14 0.17 0.21 0.17 0.21 0.16 0.16 0.17 0.17 0.15 0.18 0.18 0.16 0.17 0.17 0.15 0.17 0.20 0.18 0.18 0.17 0.17 0.16 0.16 0.15 0.17 0.20 0.20 0.19 0.21 0.23 0.25 0.27 0.28 0.28
0.46 0.50 0.52 0.54 0.55 0.56 0.56 0.55 0.55 0.54 0.54 0.54 0.54 0.53 0.54 0.55 0.55 0.54 0.52 0.49 0.47 0.46 0.45 0.45 0.45 0.45 0.42 0.42 0.38 0.35 0.29 0.24 0.21 0.31 0.35 0.35 0.36 0.37 0.37 0.37 0.35 0.35 0.32 0.29 0.26 0.24 0.22 0.19 0.18 0.16 0.17 0.15 0.16 0.15 0.16 0.17 0.17 0.16 0.18 0.18 0.17 0.15 0.14 0.18 0.16 0.17 0.16 0.17 0.16 0.17 0.15 0.16 0.19 0.17 0.16 0.16 0.13 0.13 0.17 0.20 0.22 0.22 0.22 0.22 0.23 0.25 0.27 0.27
0.44 0.47 0.51 0.53 0.53 0.52 0.50 0.50 0.52 0.53 0.53 0.53 0.53 0.55 0.55 0.53 0.51 0.49 0.47 0.46 0.45 0.46 0.45 0.43 0.43 0.44 0.42 0.37 0.36 0.32 0.28 0.14 0.25 0.28 0.35 0.35 0.34 0.34 0.34 0.35 0.33 0.32 0.31 0.28 0.24 0.22 0.20 0.18 0.16 0.17 0.15 0.16 0.14 0.16 0.17 0.17 0.19 0.19 0.20 0.17 0.15 0.14 0.14 0.15 0.14 0.14 0.16 0.14 0.14 0.14 0.16 0.17 0.15 0.15 0.17 0.16 0.15 0.17 0.21 0.22 0.22 0.23 0.22 0.22 0.23 0.23 0.23 0.24
0.47 0.49 0.51 0.51 0.48 0.47 0.48 0.52 0.52 0.52 0.53 0.52 0.53 0.54 0.51 0.47 0.47 0.46 0.45 0.45 0.45 0.44 0.45 0.43 0.42 0.43 0.42 0.42 0.39 0.36 0.23 0.22 0.27 0.29 0.32 0.33 0.33 0.33 0.33 0.34 0.36 0.36 0.34 0.26 0.22 0.19 0.17 0.16 0.16 0.15 0.15 0.12 0.12 0.14 0.15 0.14 0.18 0.18 0.17 0.15 0.14 0.15 0.11 0.13 0.12 0.15 0.15 0.15 0.15 0.18 0.22 0.16 0.15 0.12 0.17 0.15 0.18 0.19 0.21 0.22 0.22 0.22 0.22 0.21 0.20 0.21 0.21 0.21
0.48 0.49 0.49 0.47 0.46 0.48 0.50 0.52 0.52 0.52 0.52 0.52 0.51 0.46 0.45 0.46 0.46 0.46 0.45 0.45 0.44 0.43 0.44 0.43 0.40 0.38 0.37 0.33 0.35 0.20 0.18 0.17 0.25 0.31 0.32 0.33 0.32 0.32 0.34 0.34 0.33 0.32 0.26 0.20 0.18 0.15 0.16 0.12 0.14 0.14 0.14 0.16 0.11 0.16 0.16 0.16 0.17 0.18 0.16 0.12 0.12 0.13 0.11 0.12 0.14 0.15 0.15 0.16 0.17 0.19 0.15 0.15 0.16 0.15 0.17 0.16 0.18 0.20 0.20 0.21 0.21 0.20 0.20 0.19 0.19 0.20 0.20 0.21
0.48 0.48 0.47 0.46 0.46 0.49 0.51 0.51 0.51 0.51 0.50 0.47 0.45 0.45 0.45 0.46 0.46 0.46 0.44 0.44 0.43 0.42 0.41 0.39 0.35 0.35 0.33 0.29 0.26 0.17 0.14 0.24 0.30 0.31 0.32 0.31 0.31 0.32 0.34 0.29 0.31 0.26 0.20 0.17 0.17 0.14 0.14 0.09 0.13 0.15 0.14 0.12 0.13 0.16 0.16 0.18 0.16 0.14 0.11 0.12 0.11 0.10 0.11 0.12 0.14 0.15 0.14 0.15 0.16 0.15 0.15 0.17 0.17 0.19 0.16 0.18 0.19 0.20 0.20 0.20 0.20 0.20 0.19 0.19 0.19 0.20 0.20 0.20
0.48 0.48 0.47 0.46 0.47 0.49 0.50 0.49 0.49 0.49 0.47 0.45 0.44 0.44 0.45 0.46 0.46 0.45 0.45 0.43 0.41 0.39 0.35 0.34 0.33 0.34 0.33 0.29 0.26 0.14 0.20 0.31 0.30 0.31 0.32 0.32 0.32 0.32 0.30 0.30 0.28 0.24 0.18 0.14 0.13 0.13 0.10 0.12 0.11 0.14 0.14 0.12 0.14 0.10 0.13 0.14 0.10 0.15 0.13 0.12 0.11 0.11 0.12 0.13 0.14 0.15 0.16 0.15 0.16 0.14 0.14 0.16 0.19 0.18 0.13 0.18 0.19 0.20 0.19 0.19 0.19 0.19 0.18 0.19 0.19 0.20 0.20 0.21
0.48 0.48 0.47 0.47 0.49 0.49 0.49 0.49 0.49 0.48 0.46 0.45 0.45 0.44 0.45 0.46 0.46 0.44 0.41 0.38 0.36 0.36 0.34 0.30 0.30 0.29 0.21 0.21 0.16 0.13 0.25 0.28 0.31 0.32 0.32 0.33 0.31 0.29 0.27 0.29 0.27 0.22 0.20 0.14 0.12 0.14 0.16 0.15 0.17 0.16 0.17 0.10 0.13 0.09 0.12 0.11 0.15 0.13 0.13 0.12 0.12 0.12 0.13 0.13 0.14 0.15 0.18 0.16 0.16 0.15 0.14 0.16 0.17 0.16 0.14 0.17 0.19 0.19 0.17 0.17 0.17 0.18 0.18 0.18 0.19 0.19 0.20 0.20
0.49 0.48 0.48 0.48 0.49 0.49 0.49 0.50 0.49 0.48 0.46 0.46 0.45 0.45 0.45 0.45 0.43 0.38 0.36 0.34 0.31 0.32 0.31 0.29 0.27 0.28 0.23 0.17 0.15 0.15 0.26 0.26 0.30 0.29 0.31 0.33 0.30 0.30 0.30 0.29 0.27 0.22 0.20 0.14 0.12 0.14 0.15 0.17 0.22 0.18 0.11 0.16 0.11 0.13 0.11 0.15 0.14 0.14 0.13 0.13 0.13 0.13 0.13 0.13 0.11 0.14 0.16 0.14 0.16 0.17 0.14 0.14 0.14 0.13 0.16 0.18 0.19 0.18 0.16 0.16 0.17 0.17 0.17 0.18 0.19 0.19 0.20 0.20
0.49 0.49 0.48 0.49 0.50 0.50 0.51 0.50 0.50 0.49 0.47 0.46 0.45 0.46 0.44 0.41 0.38 0.36 0.34 0.32 0.33 0.31 0.32 0.31 0.29 0.29 0.28 0.13 0.15 0.23 0.25 0.27 0.27 0.27 0.28 0.31 0.31 0.31 0.30 0.29 0.27 0.24 0.20 0.15 0.13 0.14 0.16 0.18 0.16 0.13 0.16 0.16 0.13 0.15 0.13 0.17 0.13 0.14 0.13 0.14 0.13 0.13 0.13 0.14 0.12 0.12 0.15 0.14 0.14 0.17 0.08 0.13 0.14 0.16 0.17 0.18 0.17 0.17 0.16 0.15 0.16 0.16 0.16 0.17 0.17 0.18 0.19 0.20
0.48 0.48 0.49 0.50 0.51 0.51 0.51 0.51 0.50 0.48 0.47 0.46 0.45 0.44 0.41 0.37 0.36 0.35 0.34 0.31 0.33 0.33 0.31 0.32 0.29 0.28 0.17 0.14 0.19 0.21 0.24 0.25 0.25 0.24 0.24 0.28 0.28 0.27 0.29 0.28 0.27 0.24 0.22 0.17 0.17 0.19 0.17 0.20 0.18 0.16 0.18 0.17 0.14 0.17 0.13 0.13 0.16 0.13 0.18 0.16 0.09 0.08 0.10 0.13 0.12 0.11 0.11 0.14 0.15 0.15 0.07 0.12 0.14 0.15 0.15 0.16 0.17 0.16 0.14 0.15 0.15 0.15 0.15 0.16 0.17 0.17 0.18 0.19
0.48 0.49 0.50 0.51 0.51 0.50 0.50 0.50 0.48 0.46 0.45 0.45 0.43 0.41 0.39 0.37 0.36 0.35 0.34 0.33 0.32 0.32 0.32 0.30 0.30 0.30 0.15 0.13 0.20 0.22 0.23 0.26 0.19 0.20 0.24 0.24 0.23 0.25 0.24 0.25 0.22 0.21 0.17 0.18 0.17 0.18 0.18 0.19 0.19 0.15 0.13 0.19 0.18 0.15 0.15 0.14 0.15 0.11 0.13 0.08 0.08 0.07 0.07 0.10 0.15 0.12 0.09 0.11 0.15 0.13 0.06 0.12 0.12 0.13 0.15 0.16 0.16 0.16 0.14 0.15 0.15 0.15 0.15 0.16 0.16 0.17 0.17 0.18
0.48 0.50 0.51 0.50 0.49 0.49 0.48 0.48 0.45 0.43 0.42 0.40 0.37 0.36 0.36 0.36 0.34 0.34 0.33 0.32 0.30 0.29 0.31 0.27 0.21 0.19 0.10 0.08 0.12 0.21 0.17 0.13 0.15 0.21 0.24 0.26 0.23 0.21 0.24 0.22 0.24 0.22 0.18 0.15 0.19 0.17 0.18 0.18 0.15 0.15 0.14 0.19 0.11 0.12 0.14 0.09 0.09 0.10 0.09 0.08 0.08 0.08 0.07 0.10 0.14 0.14 0.14 0.11 0.12 0.13 0.07 0.11 0.12 0.14 0.14 0.16 0.16 0.15 0.14 0.14 0.15 0.15 0.15 0.16 0.16 0.16 0.17 0.18
0.49 0.51 0.50 0.49 0.47 0.46 0.46 0.44 0.41 0.40 0.37 0.35 0.34 0.34 0.33 0.34 0.34 0.32 0.30 0.27 0.27 0.27 0.25 0.18 0.19 0.19 0.08 0.13 0.19 0.12 0.12 0.15 0.20 0.19 0.21 0.25 0.24 0.24 0.24 0.22 0.21 0.21 0.20 0.19 0.18 0.20 0.15 0.17 0.20 0.19 0.14 0.10 0.10 0.09 0.10 0.06 0.06 0.07 0.09 0.08 0.07 0.06 0.08 0.07 0.09 0.17 0.13 0.11 0.09 0.14 0.11 0.11 0.12 0.14 0.14 0.15 0.15 0.15 0.14 0.14 0.14 0.15 0.15 0.16 0.16 0.16 0.17 0.17
0.49 0.50 0.48 0.46 0.45 0.46 0.45 0.42 0.39 0.37 0.34 0.32 0.31 0.30 0.28 0.30 0.33 0.33 0.31 0.30 0.26 0.23 0.21 0.26 0.25 0.22 0.10 0.13 0.10 0.11 0.15 0.14 0.16 0.18 0.20 0.24 0.25 0.22 0.21 0.19 0.20 0.18 0.18 0.19 0.14 0.17 0.19 0.16 0.14 0.10 0.11 0.10 0.09 0.08 0.06 0.05 0.07 0.07 0.08 0.07 0.06 0.07 0.09 0.08 0.08 0.11 0.12 0.11 0.09 0.10 0.11 0.13 0.13 0.13 0.14 0.14 0.15 0.14 0.13 0.14 0.14 0.15 0.15 0.15 0.16 0.17 0.17 0.17
0.48 0.47 0.46 0.44 0.44 0.45 0.43 0.39 0.37 0.35 0.32 0.34 0.33 0.32 0.31 0.26 0.25 0.23 0.22 0.20 0.19 0.14 0.10 0.10 0.13 0.07 0.06 0.10 0.14 0.14 0.14 0.17 0.19 0.16 0.16 0.19 0.21 0.22 0.20 0.18 0.19 0.17 0.15 0.12 0.12 0.16 0.17 0.12 0.10 0.08 0.08 0.09 0.09 0.09 0.08 0.08 0.09 0.08 0.09 0.08 0.09 0.09 0.09 0.10 0.08 0.13 0.12 0.09 0.08 0.09 0.10 0.11 0.13 0.12 0.13 0.14 0.14 0.14 0.14 0.14 0.14 0.15 0.15 0.15 0.16 0.17 0.17 0.18
0.46 0.45 0.44 0.43 0.44 0.43 0.39 0.37 0.34 0.33 0.33 0.29 0.31 0.28 0.27 0.20 0.14 0.13 0.17 0.15 0.14 0.15 0.14 0.15 0.18 0.15 0.11 0.11 0.12 0.16 0.18 0.18 0.14 0.13 0.16 0.20 0.20 0.18 0.17 0.17 0.16 0.14 0.15 0.10 0.14 0.15 0.16 0.08 0.08 0.08 0.09 0.10 0.10 0.10 0.10 0.10 0.10 0.10 0.12 0.12 0.10 0.10 0.09 0.08 0.08 0.14 0.14 0.10 0.08 0.08 0.09 0.12 0.12 0.13 0.13 0.14 0.15 0.14 0.14 0.14 0.14 0.15 0.15 0.16 0.16 0.17 0.18 0.18
0.43 0.42 0.42 0.42 0.42 0.39 0.37 0.35 0.35 0.33 0.31 0.30 0.26 0.28 0.19 0.18 0.12 0.08 0.12 0.14 0.16 0.17 0.15 0.15 0.14 0.12 0.11 0.13 0.14 0.14 0.12 0.13 0.14 0.13 0.15 0.20 0.20 0.18 0.14 0.19 0.19 0.12 0.12 0.15 0.15 0.16 0.12 0.08 0.08 0.10 0.10 0.10 0.09 0.11 0.12 0.13 0.14 0.11 0.10 0.09 0.08 0.08 0.07 0.08 0.09 0.14 0.16 0.11 0.08 0.10 0.12 0.12 0.13 0.14 0.14 0.14 0.14 0.14 0.14 0.14 0.15 0.15 0.16 0.17 0.17 0.18 0.18 0.19
0.42 0.41 0.41 0.41 0.39 0.38 0.37 0.35 0.33 0.31 0.31 0.30 0.21 0.13 0.14 0.15 0.22 0.25 0.24 0.09 0.15 0.15 0.16 0.14 0.18 0.14 0.17 0.16 0.16 0.17 0.17 0.12 0.11 0.12 0.15 0.18 0.15 0.12 0.14 0.15 0.13 0.12 0.16 0.18 0.20 0.15 0.09 0.08 0.10 0.10 0.12 0.13 0.12 0.12 0.13 0.13 0.12 0.13 0.11 0.08 0.08 0.07 0.08 0.10 0.13 0.16 0.15 0.14 0.11 0.12 0.12 0.11 0.15 0.16 0.15 0.15 0.15 0.15 0.16 0.16 0.16 0.16 0.16 0.17 0.18 0.19 0.20 0.20
0.41 0.40 0.41 0.41 0.38 0.37 0.34 0.32 0.30 0.30 0.28 0.24 0.18 0.19 0.16 0.23 0.28 0.27 0.26 0.11 0.10 0.16 0.16 0.12 0.11 0.11 0.13 0.17 0.15 0.17 0.10 0.09 0.09 0.12 0.14 0.16 0.15 0.15 0.16 0.14 0.14 0.14 0.13 0.13 0.10 0.10 0.08 0.09 0.10 0.13 0.12 0.12 0.14 0.12 0.09 0.09 0.15 0.11 0.09 0.08 0.07 0.08 0.07 0.07 0.09 0.16 0.15 0.14 0.12 0.13 0.12 0.11 0.14 0.17 0.16 0.17 0.16 0.16 0.17 0.18 0.17 0.18 0.18 0.18 0.19 0.20 0.20 0.21
0.40 0.41 0.42 0.39 0.37 0.35 0.36 0.32 0.30 0.29 0.25 0.27 0.25 0.26 0.32 0.34 0.30 0.24 0.21 0.08 0.09 0.12 0.16 0.13 0.14 0.11 0.12 0.12 0.16 0.17 0.11 0.11 0.12 0.11 0.17 0.15 0.13 0.17 0.15 0.14 0.15 0.14 0.11 0.14 0.11 0.09 0.09 0.11 0.13 0.13 0.14 0.12 0.12 0.11 0.08 0.08 0.10 0.13 0.12 0.09 0.08 0.07 0.08 0.09 0.09 0.11 0.13 0.14 0.17 0.15 0.12 0.11 0.15 0.13 0.14 0.16 0.17 0.17 0.17 0.18 0.18 0.19 0.20 0.21 0.22 0.22 0.22 0.21
0.42 0.42 0.39 0.37 0.35 0.35 0.33 0.33 0.26 0.25 0.29 0.28 0.25 0.34 0.36 0.37 0.35 0.29 0.22 0.12 0.15 0.10 0.18 0.18 0.16 0.12 0.14 0.20 0.18 0.15 0.15 0.14 0.14 0.15 0.19 0.17 0.14 0.16 0.13 0.17 0.18 0.11 0.14 0.14 0.18 0.13 0.11 0.13 0.15 0.14 0.15 0.13 0.10 0.10 0.10 0.10 0.09 0.11 0.14 0.09 0.09 0.09 0.09 0.09 0.11 0.13 0.10 0.08 0.16 0.13 0.08 0.07 0.10 0.13 0.14 0.15 0.16 0.16 0.17 0.18 0.18 0.19 0.20 0.21 0.21 0.21 0.21 0.20
0.41 0.39 0.36 0.35 0.34 0.34 0.35 0.28 0.27 0.32 0.29 0.22 0.27 0.33 0.39 0.41 0.40 0.37 0.20 0.10 0.06 0.08 0.15 0.08 0.17 0.10 0.20 0.11 0.15 0.17 0.23 0.11 0.16 0.17 0.19 0.19 0.22 0.15 0.18 0.11 0.13 0.10 0.13 0.13 0.11 0.11 0.12 0.14 0.14 0.12 0.13 0.09 0.10 0.10 0.12 0.11 0.09 0.10 0.11 0.11 0.10 0.10 0.11 0.11 0.12 0.12 0.08 0.07 0.10 0.15 0.08 0.07 0.09 0.12 0.16 0.15 0.15 0.15 0.18 0.19 0.19 0.20 0.21 0.21 0.20 0.19 0.19 0.20
0.39 0.36 0.35 0.33 0.34 0.34 0.32 0.23 0.31 0.32 0.28 0.25 0.33 0.36 0.37 0.42 0.41 0.33 0.22 0.08 0.05 0.08 0.10 0.12 0.13 0.12 0.18 0.12 0.15 0.20 0.08 0.11 0.20 0.17 0.17 0.20 0.16 0.20 0.14 0.11 0.16 0.16 0.15 0.15 0.19 0.10 0.15 0.14 0.14 0.12 0.09 0.08 0.09 0.09 0.11 0.11 0.10 0.09 0.12 0.11 0.10 0.11 0.11 0.11 0.12 0.11 0.10 0.12 0.11 0.14 0.13 0.09 0.08 0.09 0.16 0.16 0.15 0.16 0.17 0.18 0.19 0.20 0.20 0.19 0.18 0.19 0.20 0.21
0.37 0.36 0.34 0.33 0.32 0.32 0.27 0.27 0.27 0.23 0.22 0.28 0.36 0.35 0.36 0.37 0.36 0.32 0.11 0.04 0.04 0.11 0.08 0.12 0.11 0.18 0.14 0.16 0.17 0.12 0.12 0.17 0.16 0.14 0.20 0.22 0.19 0.16 0.13 0.10 0.09 0.10 0.13 0.15 0.09 0.11 0.13 0.13 0.12 0.11 0.09 0.08 0.08 0.10 0.13 0.12 0.11 0.10 0.11 0.11 0.11 0.11 0.12 0.12 0.12 0.11 0.11 0.10 0.09 0.11 0.12 0.08 0.07 0.09 0.16 0.16 0.15 0.16 0.17 0.19 0.19 0.19 0.18 0.18 0.18 0.20 0.20 0.20
0.34 0.33 0.33 0.33 0.30 0.30 0.35 0.29 0.27 0.23 0.30 0.34 0.34 0.37 0.38 0.37 0.25 0.19 0.10 0.04 0.07 0.10 0.17 0.13 0.21 0.17 0.14 0.20 0.14 0.16 0.16 0.16 0.12 0.15 0.21 0.25 0.21 0.15 0.10 0.11 0.13 0.12 0.13 0.14 0.10 0.12 0.14 0.15 0.14 0.14 0.10 0.09 0.09 0.11 0.13 0.14 0.10 0.12 0.13 0.15 0.15 0.14 0.14 0.13 0.11 0.11 0.11 0.10 0.09 0.08 0.09 0.07 0.07 0.09 0.10 0.18 0.17 0.17 0.19 0.19 0.19 0.18 0.18 0.18 0.19 0.19 0.18 0.17
0.34 0.33 0.33 0.33 0.31 0.31 0.28 0.30 0.25 0.32 0.34 0.37 0.36 0.37 0.33 0.25 0.22 0.10 0.05 0.03 0.11 0.07 0.11 0.12 0.12 0.10 0.15 0.13 0.15 0.15 0.14 0.15 0.19 0.19 0.21 0.16 0.18 0.22 0.17 0.18 0.16 0.15 0.14 0.14 0.12 0.14 0.14 0.21 0.20 0.15 0.11 0.11 0.11 0.11 0.15 0.13 0.14 0.15 0.15 0.11 0.11 0.11 0.11 0.13 0.13 0.13 0.09 0.07 0.08 0.09 0.09 0.09 0.08 0.09 0.10 0.12 0.16 0.18 0.18 0.18 0.18 0.19 0.20 0.19 0.18 0.17 0.16 0.15
0.31 0.32 0.32 0.33 0.29 0.29 0.25 0.23 0.27 0.34 0.37 0.36 0.35 0.31 0.26 0.18 0.09 0.06 0.03 0.05 0.12 0.10 0.16 0.14 0.11 0.15 0.12 0.11 0.10 0.14 0.16 0.17 0.15 0.17 0.15 0.17 0.15 0.15 0.16 0.15 0.18 0.17 0.14 0.11 0.13 0.14 0.14 0.16 0.16 0.16 0.18 0.13 0.13 0.11 0.17 0.16 0.16 0.17 0.11 0.11 0.10 0.09 0.09 0.10 0.11 0.09 0.08 0.06 0.07 0.08 0.08 0.11 0.08 0.09 0.13 0.16 0.17 0.17 0.16 0.16 0.17 0.18 0.18 0.17 0.17 0.16 0.16 0.16
0.28 0.28 0.30 0.30 0.31 0.34 0.22 0.24 0.29 0.34 0.34 0.36 0.29 0.23 0.15 0.06 0.06 0.04 0.05 0.14 0.06 0.09 0.09 0.10 0.14 0.12 0.13 0.14 0.15 0.13 0.12 0.16 0.16 0.16 0.14 0.15 0.14 0.13 0.13 0.11 0.12 0.09 0.09 0.09 0.09 0.11 0.14 0.12 0.13 0.16 0.17 0.13 0.11 0.10 0.12 0.16 0.15 0.14 0.12 0.11 0.08 0.07 0.07 0.06 0.07 0.07 0.07 0.06 0.08 0.09 0.10 0.09 0.09 0.10 0.15 0.16 0.16 0.17 0.18 0.19 0.20 0.19 0.19 0.18 0.16 0.14 0.14 0.13
0.27 0.25 0.25 0.27 0.31 0.29 0.31 0.34 0.36 0.34 0.35 0.29 0.24 0.17 0.08 0.06 0.03 0.06 0.07 0.09 0.07 0.13 0.12 0.16 0.12 0.12 0.12 0.15 0.12 0.14 0.17 0.12 0.16 0.16 0.18 0.17 0.16 0.16 0.18 0.15 0.16 0.14 0.08 0.10 0.09 0.09 0.11 0.14 0.14 0.14 0.16 0.14 0.13 0.09 0.09 0.09 0.12 0.13 0.11 0.11 0.08 0.07 0.07 0.06 0.07 0.09 0.08 0.08 0.09 0.10 0.12 0.10 0.12 0.12 0.17 0.16 0.17 0.19 0.20 0.20 0.19 0.19 0.17 0.16 0.15 0.15 0.14 0.11
0.23 0.25 0.22 0.26 0.28 0.29 0.34 0.38 0.36 0.33 0.25 0.20 0.15 0.13 0.09 0.04 0.04 0.10 0.08 0.09 0.10 0.16 0.16 0.13 0.12 0.13 0.12 0.11 0.12 0.15 0.12 0.16 0.15 0.14 0.16 0.15 0.14 0.12 0.14 0.16 0.16 0.13 0.13 0.13 0.08 0.08 0.07 0.08 0.13 0.11 0.10 0.13 0.12 0.11 0.11 0.10 0.13 0.14 0.15 0.14 0.10 0.10 0.08 0.07 0.08 0.07 0.08 0.09 0.10 0.12 0.11 0.10 0.11 0.12 0.16 0.17 0.19 0.21 0.21 0.20 0.20 0.18 0.17 0.15 0.14 0.13 0.12 0.09
0.24 0.23 0.23 0.26 0.29 0.27 0.29 0.31 0.31 0.27 0.20 0.15 0.12 0.07 0.04 0.05 0.07 0.07 0.08 0.10 0.12 0.14 0.13 0.17 0.11 0.12 0.13 0.14 0.15 0.16 0.15 0.13 0.16 0.14 0.14 0.13 0.13 0.13 0.12 0.14 0.17 0.16 0.14 0.13 0.11 0.11 0.08 0.09 0.14 0.14 0.13 0.14 0.11 0.14 0.15 0.13 0.14 0.14 0.14 0.15 0.11 0.10 0.12 0.09 0.10 0.11 0.11 0.10 0.09 0.10 0.10 0.11 0.11 0.16 0.18 0.20 0.21 0.21 0.20 0.19 0.18 0.16 0.14 0.14 0.13 0.11 0.09 0.09
0.24 0.20 0.24 0.17 0.18 0.21 0.25 0.27 0.25 0.23 0.18 0.16 0.07 0.06 0.06 0.07 0.07 0.11 0.11 0.18 0.15 0.12 0.13 0.15 0.12 0.12 0.11 0.13 0.16 0.14 0.19 0.14 0.14 0.15 0.14 0.14 0.16 0.14 0.16 0.17 0.16 0.18 0.14 0.12 0.12 0.09 0.09 0.08 0.13 0.15 0.15 0.13 0.13 0.14 0.14 0.17 0.09 0.12 0.14 0.11 0.12 0.15 0.14 0.13 0.13 0.11 0.11 0.11 0.09 0.10 0.10 0.11 0.14 0.14 0.19 0.20 0.20 0.19 0.18 0.17 0.15 0.14 0.13 0.13 0.11 0.10 0.09 0.09
0.20 0.19 0.12 0.15 0.15 0.20 0.21 0.23 0.21 0.18 0.16 0.14 0.07 0.06 0.10 0.10 0.14 0.13 0.15 0.14 0.14 0.15 0.13 0.10 0.11 0.11 0.12 0.12 0.13 0.14 0.16 0.19 0.15 0.14 0.11 0.14 0.15 0.16 0.15 0.17 0.21 0.20 0.20 0.16 0.15 0.15 0.10 0.09 0.13 0.13 0.11 0.15 0.17 0.16 0.18 0.19 0.17 0.15 0.12 0.14 0.17 0.19 0.18 0.15 0.09 0.10 0.10 0.08 0.08 0.10 0.10 0.10 0.11 0.10 0.17 0.16 0.15 0.17 0.16 0.15 0.13 0.12 0.12 0.11 0.10 0.08 0.08 0.09
0.18 0.15 0.16 0.14 0.15 0.20 0.21 0.20 0.20 0.19 0.16 0.09 0.08 0.09 0.14 0.12 0.16 0.16 0.19 0.17 0.17 0.17 0.13 0.12 0.12 0.15 0.13 0.13 0.13 0.14 0.15 0.16 0.13 0.14 0.12 0.13 0.12 0.21 0.17 0.16 0.22 0.20 0.21 0.22 0.15 0.15 0.15 0.10 0.11 0.14 0.12 0.16 0.17 0.17 0.18 0.19 0.20 0.16 0.15 0.23 0.14 0.10 0.11 0.12 0.11 0.08 0.08 0.08 0.09 0.10 0.11 0.10 0.11 0.11 0.14 0.13 0.14 0.14 0.14 0.13 0.11 0.10 0.10 0.10 0.09 0.09 0.09 0.10
0.17 0.16 0.10 0.12 0.19 0.21 0.21 0.21 0.20 0.19 0.10 0.09 0.10 0.09 0.12 0.14 0.19 0.17 0.20 0.20 0.19 0.15 0.13 0.13 0.13 0.14 0.15 0.14 0.14 0.16 0.16 0.13 0.15 0.13 0.12 0.13 0.12 0.20 0.17 0.20 0.18 0.21 0.22 0.22 0.18 0.16 0.16 0.11 0.10 0.14 0.12 0.14 0.16 0.14 0.10 0.12 0.19 0.21 0.22 0.18 0.21 0.15 0.12 0.11 0.11 0.12 0.13 0.09 0.09 0.08 0.10 0.09 0.12 0.12 0.14 0.14 0.14 0.14 0.12 0.10 0.09 0.10 0.10 0.09 0.09 0.09 0.09 0.09
0.14 0.14 0.08 0.16 0.19 0.21 0.22 0.22 0.17 0.13 0.12 0.09 0.10 0.11 0.16 0.14 0.18 0.21 0.22 0.22 0.16 0.15 0.13 0.15 0.16 0.15 0.16 0.16 0.16 0.14 0.16 0.16 0.15 0.14 0.14 0.14 0.13 0.22 0.18 0.22 0.19 0.18 0.22 0.23 0.18 0.20 0.13 0.16 0.10 0.11 0.14 0.14 0.10 0.12 0.11 0.13 0.13 0.14 0.14 0.15 0.17 0.15 0.17 0.15 0.14 0.13 0.12 0.11 0.10 0.09 0.08 0.08 0.12 0.16 0.16 0.15 0.14 0.12 0.10 0.09 0.10 0.10 0.10 0.09 0.09 0.09 0.09 0.10
0.13 0.14 0.09 0.20 0.18 0.21 0.18 0.17 0.12 0.12 0.11 0.13 0.14 0.13 0.16 0.14 0.17 0.18 0.22 0.24 0.21 0.22 0.17 0.17 0.17 0.16 0.16 0.16 0.16 0.17 0.15 0.17 0.16 0.15 0.14 0.15 0.14 0.13 0.21 0.21 0.22 0.18 0.21 0.22 0.20 0.18 0.12 0.14 0.09 0.11 0.12 0.11 0.11 0.15 0.14 0.14 0.15 0.15 0.15 0.15 0.16 0.14 0.13 0.11 0.10 0.13 0.11 0.10 0.09 0.09 0.08 0.09 0.14 0.17 0.16 0.14 0.12 0.10 0.09 0.09 0.10 0.10 0.09 0.09 0.09 0.09 0.09 0.10
0.14 0.08 0.10 0.17 0.21 0.22 0.18 0.11 0.13 0.16 0.14 0.12 0.11 0.16 0.14 0.21 0.18 0.18 0.20 0.22 0.20 0.17 0.23 0.20 0.20 0.19 0.18 0.17 0.17 0.18 0.16 0.16 0.16 0.16 0.16 0.14 0.18 0.17 0.21 0.27 0.23 0.23 0.19 0.15 0.15 0.19 0.18 0.15 0.13 0.11 0.11 0.11 0.13 0.15 0.17 0.19 0.19 0.18 0.18 0.17 0.18 0.17 0.16 0.12 0.09 0.10 0.12 0.11 0.12 0.11 0.09 0.08 0.13 0.15 0.14 0.12 0.10 0.09 0.09 0.11 0.10 0.09 0.09 0.09 0.09 0.09 0.10 0.11
0.12 0.09 0.14 0.18 0.21 0.16 0.15 0.12 0.14 0.13 0.12 0.15 0.21 0.18 0.20 0.17 0.16 0.17 0.18 0.21 0.17 0.21 0.19 0.20 0.19 0.19 0.20 0.18 0.18 0.18 0.17 0.16 0.16 0.15 0.15 0.15 0.17 0.20 0.24 0.26 0.24 0.22 0.22 0.17 0.19 0.20 0.22 0.13 0.10 0.11 0.12 0.13 0.16 0.18 0.18 0.19 0.18 0.18 0.17 0.20 0.18 0.15 0.15 0.14 0.13 0.13 0.12 0.12 0.11 0.10 0.08 0.08 0.12 0.13 0.13 0.10 0.08 0.09 0.11 0.11 0.10 0.09 0.09 0.09 0.09 0.09 0.10 0.11
0.12 0.11 0.13 0.17 0.22 0.17 0.15 0.09 0.09 0.11 0.13 0.15 0.16 0.15 0.19 0.17 0.17 0.16 0.16 0.17 0.17 0.18 0.18 0.18 0.21 0.21 0.19 0.22 0.20 0.16 0.18 0.14 0.17 0.16 0.16 0.16 0.17 0.25 0.25 0.24 0.23 0.18 0.17 0.15 0.15 0.19 0.13 0.12 0.11 0.10 0.10 0.10 0.11 0.14 0.14 0.17 0.17 0.14 0.14 0.16 0.17 0.18 0.17 0.15 0.14 0.15 0.12 0.12 0.11 0.10 0.07 0.07 0.10 0.12 0.09 0.09 0.09 0.10 0.10 0.10 0.10 0.08 0.08 0.08 0.09 0.10 0.11 0.12
0.11 0.15 0.14 0.14 0.17 0.16 0.10 0.13 0.11 0.11 0.11 0.11 0.12 0.12 0.15 0.15 0.18 0.18 0.17 0.17 0.20 0.19 0.19 0.18 0.20 0.22 0.20 0.21 0.19 0.20 0.20 0.16 0.14 0.18 0.16 0.16 0.17 0.25 0.27 0.24 0.23 0.20 0.20 0.21 0.18 0.22 0.18 0.14 0.12 0.09 0.09 0.09 0.09 0.09 0.10 0.11 0.13 0.15 0.15 0.15 0.16 0.17 0.15 0.13 0.11 0.11 0.10 0.11 0.11 0.09 0.08 0.10 0.11 0.09 0.09 0.09 0.10 0.10 0.11 0.10 0.08 0.08 0.08 0.09 0.09 0.10 0.11 0.12
0.12 0.07 0.10 0.11 0.14 0.14 0.14 0.16 0.14 0.11 0.10 0.11 0.11 0.12 0.14 0.13 0.16 0.19 0.20 0.17 0.20 0.20 0.20 0.20 0.22 0.22 0.20 0.20 0.19 0.18 0.17 0.19 0.15 0.15 0.15 0.15 0.17 0.21 0.24 0.25 0.23 0.21 0.21 0.20 0.19 0.19 0.15 0.16 0.14 0.12 0.11 0.11 0.11 0.13 0.14 0.16 0.15 0.13 0.14 0.15 0.15 0.17 0.17 0.15 0.14 0.12 0.10 0.11 0.10 0.10 0.10 0.08 0.08 0.08 0.08 0.09 0.10 0.09 0.09 0.08 0.08 0.08 0.08 0.09 0.09 0.11 0.12 0.13
0.12 0.09 0.10 0.08 0.13 0.12 0.11 0.13 0.12 0.14 0.11 0.14 0.10 0.13 0.11 0.14 0.14 0.16 0.22 0.16 0.19 0.20 0.21 0.20 0.20 0.19 0.18 0.19 0.17 0.17 0.17 0.17 0.17 0.16 0.15 0.15 0.17 0.20 0.26 0.23 0.24 0.23 0.22 0.19 0.18 0.17 0.14 0.15 0.15 0.13 0.13 0.14 0.14 0.14 0.15 0.17 0.15 0.14 0.13 0.13 0.14 0.15 0.16 0.15 0.13 0.11 0.14 0.11 0.07 0.08 0.08 0.08 0.07 0.08 0.09 0.10 0.10 0.09 0.08 0.08 0.08 0.08 0.08 0.09 0.11 0.12 0.13 0.13
0.09 0.10 0.14 0.14 0.13 0.08 0.11 0.09 0.14 0.12 0.13 0.14 0.11 0.13 0.12 0.12 0.13 0.12 0.17 0.19 0.19 0.21 0.19 0.19 0.21 0.21 0.20 0.18 0.18 0.15 0.15 0.16 0.16 0.14 0.16 0.16 0.18 0.20 0.20 0.23 0.21 0.21 0.21 0.19 0.18 0.14 0.13 0.13 0.15 0.14 0.14 0.15 0.15 0.16 0.16 0.15 0.14 0.13 0.13 0.14 0.14 0.14 0.14 0.14 0.13 0.14 0.12 0.09 0.07 0.08 0.08 0.07 0.07 0.08 0.09 0.10 0.10 0.09 0.07 0.08 0.09 0.09 0.09 0.10 0.11 0.12 0.13 0.13
0.14 0.12 0.13 0.17 0.10 0.10 0.12 0.11 0.13 0.13 0.11 0.12 0.12 0.13 0.11 0.12 0.12 0.14 0.16 0.16 0.17 0.19 0.20 0.16 0.18 0.20 0.20 0.20 0.19 0.15 0.16 0.13 0.13 0.16 0.15 0.15 0.16 0.17 0.17 0.20 0.23 0.22 0.19 0.17 0.17 0.17 0.15 0.14 0.14 0.16 0.14 0.15 0.16 0.15 0.14 0.13 0.13 0.13 0.13 0.15 0.14 0.14 0.13 0.13 0.12 0.12 0.11 0.09 0.09 0.09 0.08 0.07 0.08 0.09 0.10 0.10 0.09 0.09 0.09 0.09 0.09 0.08 0.09 0.11 0.11 0.12 0.13 0.14
0.08 0.09 0.08 0.13 0.12 0.11 0.11 0.12 0.12 0.14 0.10 0.13 0.11 0.12 0.13 0.13 0.13 0.16 0.18 0.17 0.15 0.17 0.21 0.19 0.19 0.21 0.22 0.20 0.19 0.16 0.16 0.17 0.16 0.14 0.17 0.17 0.18 0.18 0.17 0.18 0.18 0.22 0.19 0.16 0.16 0.16 0.15 0.12 0.15 0.16 0.14 0.14 0.14 0.14 0.14 0.13 0.13 0.12 0.14 0.16 0.14 0.13 0.12 0.12 0.11 0.10 0.09 0.08 0.09 0.09 0.09 0.08 0.10 0.11 0.10 0.09 0.09 0.10 0.09 0.08 0.08 0.09 0.10 0.11 0.12 0.12 0.13 0.14
0.13 0.15 0.12 0.09 0.08 0.09 0.12 0.11 0.11 0.12 0.10 0.12 0.12 0.13 0.15 0.14 0.15 0.17 0.17 0.20 0.18 0.17 0.19 0.18 0.21 0.21 0.22 0.22 0.20 0.19 0.20 0.19 0.19 0.20 0.21 0.19 0.17 0.19 0.18 0.17 0.22 0.18 0.18 0.16 0.15 0.16 0.15 0.13 0.17 0.16 0.14 0.13 0.13 0.13 0.13 0.13 0.13 0.13 0.13 0.14 0.13 0.12 0.11 0.11 0.10 0.10 0.09 0.08 0.08 0.08 0.08 0.08 0.10 0.10 0.08 0.09 0.09 0.08 0.08 0.08 0.08 0.09 0.11 0.11 0.12 0.13 0.14 0.15
0.14 0.15 0.15 0.14 0.07 0.09 0.09 0.11 0.10 0.13 0.09 0.13 0.15 0.15 0.14 0.15 0.18 0.19 0.16 0.21 0.22 0.23 0.22 0.21 0.22 0.22 0.22 0.21 0.18 0.19 0.22 0.23 0.23 0.24 0.25 0.25 0.26 0.25 0.23 0.21 0.20 0.17 0.16 0.16 0.17 0.14 0.15 0.15 0.14 0.14 0.13 0.12 0.13 0.13 0.13 0.13 0.13 0.13 0.13 0.13 0.12 0.12 0.11 0.10 0.11 0.11 0.10 0.10 0.09 0.08 0.08 0.10 0.09 0.09 0.07 0.08 0.08 0.08 0.08 0.08 0.09 0.11 0.12 0.13 0.14 0.14 0.15 0.16
Wind_Speed
12 11 11 10 9 8 7 6 6 6 6 5 5 5 5 5 5 6 5 6 6 6 6 6 6 6 6 5 5 5 6 6 6 8 8 9 11 12 13 13 13 13 13 13 12 13 12 12 11 12 12 11 11 11 11 11 11 11 11 12 13 12 12 13 14 15 16 18 19 20 19 18 18 18 18 17 17 18 17 17 19 19 19 20 21 22 22 22
12 11 11 10 9 8 7 6 6 6 6 6 6 5 5 5 5 5 5 5 6 6 6 6 6 6 6 5 5 5 6 6 7 9 10 11 13 13 13 13 13 13 13 12 12 12 12 12 11 12 12 10 10 10 10 10 10 11 11 12 12 11 12 13 15 15 17 18 19 19 17 17 17 18 18 17 16 18 18 18 19 19 20 21 21 22 22 22
12 11 11 10 9 8 7 6 6 6 6 5 5 5 5 5 5 5 4 5 5 6 6 7 7 6 6 6 6 6 7 7 8 11 11 13 13 13 13 13 13 13 12 11 11 11 11 11 11 11 10 9 9 9 10 9 10 10 10 11 11 12 13 12 14 15 16 17 18 18 16 15 16 17 18 18 17 17 18 19 20 20 21 21 21 22 22 22
11 11 10 9 8 8 7 6 6 6 5 5 5 5 5 4 4 4 4 5 6 6 6 6 6 7 7 7 7 7 8 8 9 12 12 14 13 13 13 13 12 12 10 10 10 10 10 10 9 9 9 8 8 9 9 9 10 10 10 11 11 13 13 12 14 15 16 17 17 18 16 15 16 17 18 18 18 18 18 19 19 20 21 21 22 22 22 22
11 10 10 9 8 7 7 6 5 5 4 4 4 4 4 3 3 3 4 5 6 7 7 6 6 6 7 7 6 6 8 8 9 12 13 14 13 12 12 11 11 10 9 9 9 9 8 8 8 8 8 8 8 8 8 9 10 10 10 10 11 14 14 13 14 15 16 17 17 16 16 16 16 17 17 16 17 18 19 20 20 20 20 21 22 22 22 22
11 10 9 8 7 7 6 5 4 3 3 3 3 3 3 2 2 3 4 5 6 6 6 6 5 6 6 6 5 6 7 7 10 13 13 13 12 11 11 10 10 9 9 9 8 8 8 8 7 7 7 7 8 9 9 9 10 10 9 10 12 14 14 14 14 14 16 16 16 15 15 15 15 16 17 16 16 18 20 21 21 21 21 21 21 22 22 22
10 9 9 8 6 5 4 3 3 3 2 2 2 1 1 1 2 3 4 5 6 7 7 6 5 6 6 6 5 5 7 7 11 12 12 11 10 10 9 9 9 9 9 9 9 9 9 9 8 8 8 8 9 10 9 10 10 11 10 11 12 13 14 14 14 14 16 16 16 15 15 16 15 16 17 17 18 19 20 21 21 21 21 21 22 22 22 23
10 9 8 7 5 4 4 3 2 2 2 1 1 0 1 1 2 3 4 5 6 7 7 6 6 6 6 6 5 6 8 9 11 12 11 10 9 9 8 9 9 9 10 10 10 10 9 10 9 9 9 8 10 10 10 10 10 11 11 12 12 12 13 14 13 14 15 16 15 15 15 16 15 16 18 19 20 20 21 21 21 21 21 22 22 23 23 24
9 8 7 6 5 4 3 3 2 1 1 1 1 1 1 2 2 3 4 5 7 7 7 6 5 5 5 5 4 5 8 9 10 11 11 10 9 9 8 9 10 9 10 10 11 10 9 11 10 10 10 9 10 10 10 11 10 11 11 11 11 12 14 14 14 14 15 17 16 16 16 16 17 18 19 20 21 21 22 22 22 22 22 22 23 23 24 24
9 8 7 6 5 4 3 2 2 2 1 1 1 1 2 3 3 4 5 5 6 6 7 7 6 6 5 4 4 6 8 9 10 11 10 10 9 9 9 9 10 9 10 11 12 11 11 11 11 10 9 9 9 10 11 11 11 11 11 11 12 12 14 14 15 14 15 17 18 18 17 18 19 20 20 20 22 22 22 22 22 23 23 24 24 24 25 25
9 8 7 5 5 4 3 3 2 2 2 1 1 2 2 3 3 4 4 5 5 5 6 7 8 8 8 9 8 7 9 9 10 10 10 10 10 9 9 9 10 10 10 11 12 12 11 12 11 10 9 9 9 10 11 12 11 11 12 12 13 13 14 15 15 16 16 17 18 18 18 18 19 20 20 21 22 22 22 22 23 23 24 25 25 26 26 26
9 8 6 5 5 4 3 3 2 2 2 2 2 2 2 3 3 4 4 5 6 6 7 8 8 8 8 10 10 8 9 9 10 11 10 10 9 9 9 9 10 10 10 10 11 12 12 12 12 10 10 11 10 10 11 12 13 12 13 13 13 14 15 15 16 17 18 18 18 19 19 19 19 19 20 21 22 22 22 22 23 24 24 25 26 26 27 27
8 7 6 5 4 4 3 3 3 2 2 2 2 2 3 3 4 5 6 6 6 6 7 7 8 8 7 8 9 9 9 10 10 10 10 10 9 9 9 10 10 11 11 10 10 12 12 13 13 12 12 12 12 12 12 13 13 13 13 14 14 14 15 15 17 18 18 17 19 20 21 20 18 19 20 22 22 22 22 22 23 24 25 25 26 27 27 27
8 6 5 5 4 4 3 3 3 3 3 3 3 4 5 5 6 6 6 7 7 7 6 6 7 7 8 7 8 10 11 10 11 11 11 11 10 9 10 10 10 11 11 10 10 11 12 13 13 12 13 14 13 12 12 12 13 13 12 13 15 15 15 15 17 19 18 18 19 21 21 20 19 20 21 22 22 22 22 22 23 24 25 26 27 28 28 28
7 6 6 5 5 4 4 4 4 4 4 5 6 7 7 8 8 7 7 8 8 7 7 7 6 6 8 8 8 11 12 12 13 13 12 12 11 10 10 10 10 11 12 11 11 12 13 14 14 13 14 13 12 12 12 12 13 14 13 14 16 16 17 17 16 17 19 20 21 21 21 20 19 20 21 22 23 23 23 23 24 26 26 27 28 28 28 28
7 7 6 5 5 5 4 5 6 7 8 9 9 9 9 8 8 8 9 9 9 9 8 8 8 7 8 9 9 11 13 15 15 13 12 13 12 10 10 10 10 12 12 12 13 13 13 13 13 13 14 14 14 13 12 12 14 15 15 15 17 19 19 18 16 17 20 23 23 21 21 21 20 20 21 23 23 23 24 25 26 27 28 28 29 29 29 30
8 7 6 5 5 5 6 8 10 11 11 11 11 11 10 9 8 8 8 8 8 10 9 9 8 7 9 10 10 12 14 15 14 13 13 13 12 12 11 11 11 12 13 12 13 13 13 14 13 13 15 15 16 15 12 14 16 16 16 16 18 20 20 20 19 19 21 24 24 23 23 22 20 21 22 23 23 24 25 26 27 28 29 29 30 30 31 31
8 7 6 6 7 7 9 11 12 12 12 13 13 13 13 12 11 9 8 7 7 8 10 10 8 7 9 12 12 12 13 14 14 14 14 13 12 13 13 12 13 13 13 12 14 15 14 14 14 13 15 16 17 16 14 15 17 17 18 18 19 20 20 22 23 22 23 25 25 25 24 23 22 22 22 22 23 25 26 27 28 29 30 30 31 32 33 33
8 8 8 9 9 10 12 12 11 11 11 12 12 12 12 12 13 12 12 12 10 9 9 11 10 8 10 13 13 12 12 13 14 16 15 13 13 13 13 13 13 14 13 13 15 16 15 14 15 15 16 17 17 17 16 17 17 18 19 19 21 22 21 23 25 23 24 26 26 26 26 25 24 23 23 23 24 25 27 28 29 30 30 31 32 33 34 35
10 10 11 11 12 12 12 11 11 10 10 9 9 8 8 9 10 11 13 14 13 11 11 11 11 11 11 13 13 13 12 12 14 18 17 15 14 14 14 14 13 14 13 14 15 16 15 15 15 16 17 17 17 17 18 18 17 18 19 20 22 23 23 26 27 23 24 26 27 27 28 28 26 24 23 24 25 27 28 29 30 31 32 33 34 35 36 36
12 13 13 13 13 13 12 11 11 11 10 9 9 8 8 8 8 9 9 12 12 12 13 13 11 11 11 12 14 14 13 11 15 19 19 17 15 14 15 15 14 13 14 14 14 14 16 15 16 17 17 17 18 18 19 18 18 18 19 21 23 23 26 29 27 24 25 26 28 30 30 29 27 25 24 25 27 28 29 30 31 32 34 35 36 37 37 38
14 14 14 14 14 13 12 12 12 12 11 12 11 12 11 11 10 9 9 10 12 12 12 13 13 12 11 11 13 14 13 13 17 21 21 19 17 15 16 16 13 14 15 14 13 14 15 16 17 18 17 18 17 18 20 20 19 18 19 22 23 25 29 29 26 25 27 27 30 31 30 31 29 25 25 27 28 29 29 30 32 33 35 36 37 38 39 40
15 14 14 14 14 13 13 13 12 12 12 12 12 11 11 10 10 9 9 10 11 11 12 13 14 15 14 13 14 15 15 16 17 21 22 20 18 16 16 16 14 14 15 15 14 14 15 15 17 18 18 19 18 19 22 21 19 18 20 23 25 28 30 29 27 28 30 30 31 31 32 33 29 26 28 29 29 29 30 32 33 34 36 37 38 39 40 42
15 14 14 14 13 13 12 12 11 11 11 11 10 9 8 8 8 9 9 10 10 11 11 12 13 15 16 14 15 15 15 17 18 20 22 20 18 16 16 16 15 14 15 16 15 14 15 15 18 19 19 20 20 20 23 23 21 19 20 24 27 31 31 30 31 31 31 29 28 30 32 31 28 27 29 29 29 30 31 33 34 35 37 38 39 40 42 44
15 14 14 13 13 12 12 11 10 10 10 9 9 8 7 7 7 7 8 8 10 11 11 11 12 15 16 15 16 14 13 16 19 20 21 20 19 16 15 15 15 15 15 16 15 14 16 16 18 20 20 21 21 22 23 23 23 20 20 26 30 32 32 32 32 31 31 28 25 27 30 30 29 29 29 29 29 31 33 34 35 36 38 39 40 42 45 47
14 14 13 13 12 12 11 10 9 9 8 8 8 7 7 6 5 6 6 7 10 11 12 12 12 15 17 17 19 15 12 16 18 20 21 20 18 16 15 15 15 15 16 16 15 15 16 17 18 20 21 22 22 22 23 24 24 21 23 29 32 32 32 32 32 30 29 29 29 27 28 32 35 31 29 30 31 32 34 34 36 37 38 40 43 45 48 49
13 13 12 12 12 11 10 9 9 8 8 8 7 7 6 6 5 5 5 5 9 11 13 14 13 16 17 18 20 15 13 17 17 19 22 20 18 16 15 16 15 15 16 15 15 16 17 18 19 21 22 23 23 23 24 25 24 23 26 31 33 32 32 32 31 28 28 31 30 25 26 33 37 33 29 31 33 33 33 35 36 37 39 43 46 47 49 50
12 12 11 11 11 10 9 8 8 8 8 7 7 7 6 6 6 5 5 6 9 11 12 13 13 16 17 17 19 17 15 18 17 19 22 20 18 16 15 16 16 16 16 15 15 16 17 19 20 21 22 23 24 24 25 25 24 26 30 32 33 32 31 31 29 27 29 31 27 25 30 33 35 35 32 31 33 33 33 35 36 39 43 45 47 48 51 53
12 11 10 9 9 9 8 8 8 7 7 7 6 7 6 6 6 5 6 6 9 11 11 14 14 16 19 17 17 18 17 18 17 19 21 19 19 17 15 16 16 16 17 16 16 16 17 18 19 21 22 23 25 25 25 24 25 29 32 33 33 31 29 29 27 28 30 29 27 31 36 34 34 39 35 31 32 33 33 35 38 42 44 46 47 50 53 54
11 10 9 8 8 8 7 7 7 7 7 7 6 6 7 7 6 6 7 7 10 11 12 14 14 16 19 17 16 18 18 17 18 19 19 18 19 18 15 16 17 16 17 17 16 16 16 17 18 20 22 24 26 26 24 24 26 30 32 34 33 31 29 26 25 28 29 28 30 36 41 37 35 38 36 32 33 33 35 38 41 43 44 46 48 51 54 55
11 10 9 8 7 7 6 7 7 7 7 7 6 6 7 7 7 7 8 8 9 11 12 14 14 15 18 17 16 19 18 17 19 19 19 18 19 20 18 17 17 17 16 17 18 17 16 17 18 19 22 25 27 26 24 24 26 29 31 33 33 31 28 25 25 28 28 30 35 40 44 40 35 36 35 34 35 36 39 41 42 43 45 47 50 53 54 55
10 10 9 8 7 7 7 7 7 7 7 7 6 6 6 7 9 9 9 9 9 11 12 13 14 16 17 16 17 19 18 18 20 19 19 19 19 20 20 19 20 18 17 19 21 19 17 17 18 19 22 26 28 27 25 24 27 29 31 33 32 31 30 28 28 29 30 34 38 42 44 39 36 37 37 36 37 38 40 41 41 44 47 50 52 54 54 57
10 10 10 10 9 8 8 8 8 7 7 6 6 6 6 7 9 9 9 10 10 11 12 12 14 16 16 16 18 19 17 18 20 19 18 20 19 19 20 21 22 20 19 20 21 22 19 17 18 20 22 26 28 27 27 28 29 29 31 32 32 30 30 30 30 30 32 37 42 44 41 36 36 37 37 38 39 39 39 40 42 47 50 53 55 55 58 62
12 12 12 12 11 11 10 9 8 8 7 7 6 7 8 9 9 8 9 11 11 12 12 12 15 15 15 16 18 19 17 17 20 20 20 20 20 20 20 22 23 22 20 20 20 22 22 20 20 22 23 26 28 26 26 29 29 28 29 30 30 29 28 30 30 31 35 40 44 43 37 34 36 37 38 40 39 38 38 41 46 51 54 56 57 59 62 63
13 13 13 12 12 12 10 9 8 8 8 7 7 8 9 9 8 9 10 11 12 13 13 12 14 15 15 16 16 18 18 18 19 20 20 21 20 21 22 22 24 23 21 21 20 21 23 22 21 22 24 27 28 25 26 28 27 28 29 29 31 30 29 30 31 34 38 40 40 39 36 36 38 39 39 37 37 37 40 47 52 54 57 57 58 61 63 61
13 13 12 12 11 11 10 9 9 9 8 7 8 10 10 9 9 10 11 11 12 14 14 12 14 16 17 17 17 19 18 18 20 19 19 20 20 21 22 22 23 24 23 22 21 22 23 23 23 22 24 27 27 25 26 27 28 30 30 30 32 31 29 30 33 36 38 37 37 39 40 41 41 39 35 34 38 41 46 51 54 57 59 59 60 62 61 59
13 13 13 12 12 11 11 10 9 9 9 8 9 11 10 10 11 11 11 12 12 13 14 14 14 16 18 18 19 21 20 18 20 20 19 20 20 21 23 22 22 23 23 22 22 22 24 26 24 23 26 27 25 26 26 26 29 31 30 32 33 30 27 29 33 36 36 36 38 40 43 45 42 38 36 39 45 47 50 53 56 59 61 59 61 62 60 57
12 12 13 13 13 11 11 11 10 9 10 10 11 11 10 10 11 11 12 12 12 13 15 15 15 16 18 19 19 21 21 19 21 21 19 20 20 21 24 23 22 24 24 23 22 23 25 26 23 22 27 28 25 26 27 27 29 30 29 31 31 29 29 31 34 35 36 38 39 41 45 45 40 39 42 47 48 49 52 57 59 61 60 59 62 61 58 55
11 11 12 13 13 12 12 11 10 10 11 11 11 10 10 11 11 12 12 13 13 14 15 16 16 16 18 19 20 20 20 20 21 21 20 21 22 22 23 24 24 25 25 23 24 25 25 24 23 24 29 30 26 27 29 29 29 29 29 30 30 29 31 33 34 34 35 39 40 43 45 42 40 42 46 47 48 53 58 61 60 59 59 60 60 58 56 54
10 10 11 12 13 13 13 12 13 13 12 12 11 11 11 11 11 12 13 14 14 15 16 16 17 18 18 19 19 20 21 20 21 22 21 23 23 22 23 24 25 26 26 24 24 26 26 24 25 29 31 29 27 28 30 30 30 31 31 31 31 31 32 34 34 33 35 38 40 42 43 44 44 44 44 47 53 58 61 61 58 57 60 61 59 57 55 52
10 10 10 11 12 11 11 12 13 13 12 12 12 12 11 11 11 12 13 14 14 15 16 17 18 18 19 19 19 20 21 21 21 22 22 23 23 22 23 25 25 26 26 25 24 26 27 25 27 31 31 29 28 28 29 29 31 33 32 31 31 32 34 35 35 35 37 38 40 41 43 46 45 41 44 51 57 61 61 58 56 58 61 60 58 55 53 49
11 11 11 12 12 11 11 12 12 12 12 13 12 12 12 12 12 13 13 14 15 15 16 17 18 19 19 20 20 21 22 21 21 22 22 23 24 24 24 26 26 25 25 25 26 26 26 26 28 30 30 30 29 28 28 30 32 33 31 30 31 33 34 35 36 39 40 41 43 43 44 47 45 43 49 56 60 61 59 56 56 58 60 58 56 54 51 47
12 12 11 12 12 11 12 13 12 13 13 13 12 13 13 13 13 13 13 14 15 16 17 17 18 19 19 20 21 21 23 22 21 22 23 23 24 24 25 26 26 25 25 26 27 27 26 27 30 31 31 30 28 28 28 30 32 33 31 31 33 34 36 36 37 41 41 41 42 42 43 48 48 49 55 61 63 60 55 55 58 59 58 56 54 51 48 45
13 13 13 13 12 11 11 12 12 12 13 12 12 13 13 13 14 14 14 16 16 17 18 18 19 19 20 21 21 22 23 22 22 22 23 24 24 24 25 26 26 26 26 26 27 28 27 27 30 32 32 32 31 30 31 32 34 34 33 33 34 35 37 38 40 41 40 41 43 42 45 51 54 55 60 62 60 56 54 56 59 58 56 54 51 49 46 44
12 13 14 15 14 13 12 12 12 12 12 12 13 13 13 13 14 15 16 16 17 18 18 18 19 20 20 20 20 21 22 23 22 22 23 24 23 23 25 26 26 25 25 26 27 28 28 27 29 30 31 32 32 32 34 36 36 35 34 35 36 36 37 40 42 42 41 45 47 44 47 57 61 61 62 60 56 54 56 59 59 56 54 52 51 48 45 43
10 11 12 13 14 14 12 12 12 12 11 12 12 13 14 14 14 15 16 17 17 18 19 19 19 19 20 21 21 21 23 23 22 23 24 24 24 24 24 26 26 25 26 27 28 28 28 27 28 30 30 30 31 33 35 37 37 36 36 38 38 37 37 40 42 42 44 49 49 47 51 61 65 64 61 57 54 55 58 60 58 54 53 52 50 47 44 43
10 10 10 10 11 12 12 12 13 12 12 12 13 14 14 14 15 15 16 17 18 18 18 19 20 20 21 23 22 22 24 23 22 23 24 24 24 24 24 25 25 25 26 28 29 30 29 26 28 32 32 30 32 35 36 36 36 37 38 38 39 39 39 40 41 43 47 49 51 54 59 63 65 64 59 55 55 58 59 58 56 54 53 51 48 46 45 44
11 10 10 9 9 10 11 12 13 13 13 13 13 14 15 15 16 16 17 17 18 18 18 19 20 22 22 23 23 23 25 24 22 22 23 24 24 23 23 24 25 26 27 28 30 30 29 27 30 33 33 32 34 36 37 37 36 36 37 37 38 41 42 42 42 44 46 47 52 59 63 63 63 61 56 55 57 59 59 56 54 54 52 50 47 46 46 44
11 11 11 10 10 11 11 11 12 13 14 14 14 15 16 16 16 17 17 18 18 19 19 20 21 22 22 23 23 24 25 25 24 24 24 24 24 24 24 24 24 27 28 28 30 30 29 30 32 34 34 34 34 37 38 37 36 36 35 35 38 42 42 43 45 47 49 49 52 58 62 61 58 55 55 58 60 58 55 54 53 53 51 48 48 47 45 43
10 10 10 11 11 11 11 11 11 12 13 14 14 15 16 16 17 17 18 19 19 19 20 21 22 22 22 23 23 24 24 25 25 25 25 24 24 24 25 25 25 27 28 29 30 31 32 32 33 34 35 34 36 39 39 37 36 36 33 34 39 43 44 44 48 51 52 54 55 57 59 56 52 54 59 61 60 57 54 53 53 51 49 48 48 47 45 45
11 11 10 11 11 11 11 11 11 12 13 15 15 15 16 17 17 17 18 19 20 20 21 22 22 22 22 22 23 24 25 26 26 26 25 25 25 25 25 26 26 27 28 29 30 32 34 34 34 35 35 34 38 43 42 38 35 33 32 37 42 44 46 47 49 50 52 56 58 58 56 53 54 59 63 61 58 56 54 53 51 50 49 49 48 46 46 47
12 11 11 11 11 11 11 11 12 13 14 16 16 16 16 17 17 18 18 18 19 20 21 22 22 22 22 22 24 25 26 26 25 25 25 24 25 25 25 26 26 27 29 30 30 32 34 35 36 36 34 36 40 43 42 38 34 31 33 39 43 45 49 51 51 51 52 53 55 54 53 55 59 63 62 60 57 55 53 51 50 49 48 47 46 46 48 49
Wind_Direction
188 188 188 190 193 196 201 207 215 224 233 243 253 265 275 280 288 295 302 310 314 319 323 324 323 321 319 322 332 332 328 332 341 342 339 332 323 319 318 317 314 314 315 311 312 311 305 299 299 300 296 294 295 297 296 297 297 293 291 288 290 294 297 299 299 299 297 296 298 301 301 300 299 301 299 293 295 300 304 307 304 304 305 305 305 305 306 307
187 188 189 192 195 200 205 211 219 227 236 246 258 268 276 282 288 291 299 308 316 326 332 328 320 316 312 311 315 321 324 328 343 347 340 331 325 323 322 321 318 318 317 313 315 314 309 307 306 302 298 297 301 300 297 299 298 294 293 290 293 301 301 301 302 301 300 298 299 301 302 304 303 303 300 294 299 305 304 305 304 304 305 305 306 307 307 309
186 187 189 193 197 202 207 214 221 229 239 250 260 270 277 282 285 289 299 310 319 326 330 326 321 315 307 304 298 301 310 312 331 338 333 329 326 325 325 324 322 320 318 316 317 315 312 311 309 307 302 302 307 303 299 302 300 297 296 293 298 304 302 306 309 306 303 301 301 301 301 305 308 306 300 293 298 307 304 302 302 303 304 304 306 306 307 308
183 185 188 192 197 204 209 217 224 234 245 256 264 272 278 281 282 290 305 317 323 324 325 322 319 316 307 303 296 297 301 303 325 331 328 330 328 328 328 327 326 324 322 320 320 319 317 315 314 313 307 307 312 305 303 307 305 302 301 300 306 306 304 311 313 310 307 303 302 302 298 301 309 311 307 298 296 302 302 302 302 302 303 304 305 306 307 308
180 182 186 190 196 202 209 217 227 239 250 260 267 273 277 277 282 300 318 325 329 326 325 322 321 324 317 308 300 301 302 305 328 331 329 333 331 331 333 334 334 333 332 329 329 327 323 320 318 316 310 313 314 306 310 315 306 304 307 309 312 309 306 312 313 310 307 305 304 304 302 302 307 312 313 308 300 298 300 300 301 301 303 304 304 305 306 307
178 179 183 186 191 197 205 215 226 239 249 259 265 270 269 274 295 319 331 334 335 332 329 321 324 338 339 333 319 316 318 321 333 333 334 336 335 338 341 345 346 346 344 339 335 331 330 323 317 319 317 320 320 315 318 317 308 305 310 314 313 311 309 310 311 309 308 311 311 307 306 306 307 309 312 311 305 300 299 299 299 300 302 303 304 305 306 307
175 175 176 178 184 190 198 207 216 226 238 249 250 257 269 305 325 336 341 343 343 339 334 319 316 329 339 345 340 345 350 343 339 339 342 344 346 349 352 355 355 355 352 349 344 338 340 335 328 326 322 325 326 323 319 315 311 308 311 316 314 312 311 310 309 308 311 315 313 307 305 307 307 306 307 308 305 301 300 299 299 299 300 302 304 305 306 306
170 169 170 173 176 181 185 191 198 208 218 227 227 269 340 346 346 348 346 347 346 343 338 323 312 317 328 332 328 357 7 353 350 352 354 357 360 359 359 358 357 357 356 358 352 344 344 344 341 329 326 331 326 324 320 313 313 315 316 316 313 312 314 312 308 308 314 315 311 310 308 307 307 306 307 307 304 302 302 300 300 300 301 303 305 306 306 305
163 163 164 165 167 170 171 173 174 169 160 132 90 64 26 6 357 350 344 343 345 350 353 347 338 334 338 332 331 12 13 0 0 2 4 6 5 0 359 357 356 357 358 1 358 353 350 346 342 333 334 335 326 326 320 313 318 322 319 314 314 317 318 316 311 309 314 313 308 309 307 303 303 303 306 308 305 304 303 303 302 301 303 304 305 306 305 305
157 157 157 156 157 156 151 146 135 113 92 87 75 46 17 8 357 348 344 344 349 0 10 17 23 23 23 14 23 34 16 5 6 5 7 8 4 360 358 358 357 357 359 2 0 358 354 349 344 336 337 334 330 332 324 320 322 320 317 315 315 319 322 319 314 310 312 313 308 309 309 306 306 302 303 308 306 304 303 303 303 302 303 304 304 305 304 304
152 152 150 148 145 138 129 115 103 89 75 67 46 22 9 360 352 352 358 8 18 26 31 36 40 45 46 43 46 36 13 7 6 4 4 4 3 2 360 359 357 356 356 0 2 358 353 352 348 338 337 334 330 333 331 327 322 316 315 315 312 314 321 321 317 313 311 314 311 309 310 310 310 305 304 307 305 303 303 303 304 303 304 303 304 304 303 303
148 146 143 140 134 123 109 96 87 77 62 44 32 14 3 0 8 24 40 49 51 50 48 44 45 49 48 45 42 26 12 10 4 2 2 1 4 4 0 358 358 358 357 359 3 0 356 353 348 343 340 334 327 328 331 328 322 315 311 313 311 307 314 320 322 317 311 317 315 309 307 306 310 309 307 307 304 303 304 304 305 304 305 304 303 302 302 303
145 142 137 132 123 112 100 89 80 70 51 39 33 24 31 44 57 66 66 61 57 56 52 45 47 49 44 42 37 23 16 13 6 3 3 2 2 3 2 2 2 2 2 0 358 358 359 357 353 350 342 332 329 326 325 326 324 320 312 316 318 308 310 320 325 321 315 319 319 311 307 306 309 311 309 309 306 304 305 306 306 306 305 304 303 302 301 302
141 135 129 125 116 107 96 83 72 57 47 52 58 66 75 80 82 80 71 63 59 56 50 44 45 43 44 45 35 26 20 13 11 9 6 4 3 4 5 6 7 5 2 358 353 351 352 351 348 345 340 334 331 325 321 324 325 326 320 320 326 321 319 323 325 325 321 320 319 314 309 307 308 310 311 311 307 305 306 307 307 306 306 305 304 303 302 302
135 129 125 121 111 102 91 76 66 67 74 77 82 88 89 89 87 82 75 67 60 55 50 49 46 41 45 45 30 22 17 14 14 12 9 6 5 6 5 6 6 3 359 355 350 345 343 344 342 339 339 334 329 323 318 323 327 332 328 322 329 327 323 323 322 325 325 321 319 316 313 309 309 312 313 312 309 307 307 308 308 308 307 306 305 304 303 302
131 126 124 118 107 99 87 79 83 87 87 86 89 91 93 92 89 85 80 71 59 52 52 51 45 40 43 36 23 17 15 14 12 11 10 8 6 4 358 356 355 353 352 350 347 344 340 340 338 339 343 339 335 328 319 325 330 333 332 325 326 325 322 322 320 322 324 322 319 317 314 312 312 313 313 312 310 307 307 308 309 308 308 307 306 305 304 303
129 126 124 114 104 99 92 94 97 95 91 89 89 88 88 89 89 87 80 70 57 49 51 48 40 45 44 29 18 13 12 13 12 10 9 7 5 0 352 344 342 341 340 340 341 339 335 334 333 336 345 346 343 338 330 330 329 328 330 325 324 324 322 321 320 323 325 322 319 315 313 313 313 311 311 311 309 307 307 308 308 308 307 307 306 305 304 303
130 126 118 110 104 102 103 105 103 97 93 92 91 88 84 81 82 81 68 60 56 51 51 41 32 46 38 22 16 10 9 12 12 7 4 2 359 355 351 343 337 331 330 335 340 337 333 335 336 335 341 343 342 342 339 331 325 324 326 324 324 324 322 322 321 323 325 322 318 315 312 311 311 309 309 308 308 308 308 308 308 308 307 306 306 305 304 303
126 118 111 107 105 106 108 108 103 97 95 94 92 89 83 78 76 71 61 60 60 54 48 33 30 44 33 18 16 10 7 10 9 6 2 357 351 347 345 342 338 333 330 336 343 341 335 334 335 335 338 339 339 340 336 328 323 322 322 322 323 321 320 321 320 323 325 320 317 315 312 310 309 308 308 306 308 310 309 309 309 308 307 306 306 305 304 303
119 113 109 107 107 110 109 104 100 96 94 93 89 83 82 79 72 65 60 61 59 53 50 39 37 46 37 23 18 11 6 5 7 7 2 353 345 342 342 338 334 337 336 334 339 340 336 338 342 340 337 336 335 334 330 326 323 321 320 322 322 319 318 320 320 322 325 320 316 314 312 310 309 308 308 306 307 309 309 309 309 309 308 307 307 306 305 304
116 112 108 108 109 110 105 99 96 92 90 91 86 81 81 77 73 71 65 61 55 49 50 45 41 42 33 24 19 12 5 1 5 6 1 354 346 340 341 338 333 339 338 331 333 337 339 346 347 340 335 332 330 329 327 325 322 321 322 323 322 320 319 319 318 320 323 319 315 314 312 311 309 308 310 308 307 308 310 310 310 310 309 308 308 306 305 304
115 111 108 108 108 105 101 98 93 90 92 91 87 83 82 77 75 75 69 65 56 48 48 44 39 33 24 19 15 9 5 0 359 1 359 354 352 347 342 341 341 342 339 333 331 335 345 351 346 339 335 330 327 330 331 327 322 321 325 325 323 323 322 320 319 319 320 317 315 315 313 312 309 307 311 310 309 309 310 311 310 310 310 309 308 307 306 306
114 110 108 106 105 103 101 98 92 90 92 90 85 82 81 77 74 71 66 67 60 49 45 40 34 26 18 14 8 5 8 5 355 355 355 353 353 350 343 344 346 345 345 345 341 341 346 348 343 338 334 331 333 338 338 332 324 321 327 328 325 326 324 321 320 319 317 315 314 315 314 313 310 309 311 311 310 310 310 310 311 310 310 309 308 307 307 307
113 110 107 105 104 102 102 99 93 90 87 84 80 80 81 76 73 69 62 64 58 46 39 33 28 21 14 8 1 360 6 7 357 353 354 354 350 346 345 345 344 346 346 345 349 352 348 343 339 335 332 334 337 340 341 337 330 324 328 330 327 326 324 319 319 319 318 316 316 316 315 314 313 310 311 311 310 310 310 310 310 311 310 310 309 308 308 307
113 110 107 104 102 104 104 98 92 89 83 78 76 77 83 78 74 68 57 56 48 35 29 25 19 15 8 1 359 355 356 2 360 355 354 355 351 346 347 346 343 347 344 340 345 350 347 340 335 334 336 338 338 338 339 336 332 326 328 332 328 324 322 319 319 320 321 322 322 320 317 318 317 310 310 314 313 311 311 311 311 311 311 311 311 310 310 309
114 111 107 103 102 105 105 96 89 86 79 76 75 75 79 73 69 60 45 44 37 24 17 15 10 8 4 359 358 353 351 357 357 357 356 356 354 349 348 349 348 348 342 338 342 343 343 339 332 334 339 341 339 337 338 336 331 327 329 331 327 323 321 319 321 321 321 323 322 319 316 317 319 315 312 315 314 311 312 311 311 313 313 313 313 312 312 311
116 113 109 105 101 102 102 93 84 79 74 76 74 71 71 61 60 54 31 29 28 16 10 9 5 4 2 359 359 358 354 351 351 359 359 356 354 351 351 353 351 351 345 337 338 339 339 339 338 338 340 342 339 336 337 335 330 328 330 329 326 323 321 319 320 318 318 321 321 319 316 316 319 320 316 314 313 311 311 312 313 314 314 314 314 313 313 312
116 114 112 107 99 93 93 90 82 75 71 73 70 66 62 54 56 46 25 24 19 9 6 6 3 1 359 358 4 8 1 352 353 358 357 355 354 349 352 354 349 350 348 337 336 337 335 339 340 340 341 341 338 334 334 332 328 328 328 327 325 321 318 318 318 316 319 323 323 326 326 318 317 320 318 314 313 310 310 312 314 315 315 315 315 314 314 313
113 112 111 104 97 89 88 87 81 75 70 68 66 62 55 52 53 35 22 23 15 7 5 4 1 359 358 358 6 9 3 358 357 353 352 356 357 351 351 351 346 345 347 345 342 337 334 337 336 337 340 339 335 333 332 330 328 328 327 326 325 321 317 319 319 318 322 323 322 328 330 322 317 320 319 315 314 312 312 313 315 316 315 315 315 315 315 315
106 106 104 99 97 92 88 85 77 72 68 65 64 60 54 49 40 25 23 18 10 6 4 3 1 358 358 1 6 5 1 0 356 351 352 356 356 355 351 346 343 340 343 350 350 341 335 333 333 337 340 337 332 330 330 329 327 328 329 329 329 326 323 322 321 322 322 322 324 328 329 323 318 320 322 319 318 318 316 315 315 316 316 316 317 317 317 316
96 95 95 96 98 91 86 83 75 71 67 64 64 57 51 42 28 24 25 14 4 4 3 4 4 1 1 4 2 359 359 360 356 354 357 356 355 357 353 347 344 342 343 347 348 343 335 330 333 338 338 337 334 332 331 330 328 330 333 333 332 331 330 325 324 326 324 323 326 328 327 323 318 320 323 322 320 320 319 317 316 317 317 318 318 319 319 317
91 89 89 92 93 87 85 82 75 73 67 62 60 49 39 36 30 26 20 8 1 5 7 6 4 1 360 360 360 358 357 359 359 358 357 356 357 359 358 355 350 347 346 346 344 342 337 334 337 338 337 339 338 336 336 334 332 334 336 337 335 334 333 330 327 328 325 322 324 326 326 322 318 321 324 322 321 321 320 320 319 319 319 319 319 319 319 318
91 90 89 87 87 85 84 81 75 71 65 57 55 42 31 33 30 24 17 9 7 7 6 2 359 356 354 357 1 359 357 359 359 357 356 357 360 1 1 0 355 348 344 343 343 343 341 339 340 338 338 341 340 338 339 337 335 337 338 339 338 335 333 330 327 327 323 321 323 325 324 321 320 324 325 323 322 321 320 322 322 321 320 320 319 319 318 318
89 90 90 87 84 82 79 79 73 66 62 56 47 38 38 38 32 26 20 15 12 7 2 0 357 355 357 1 2 358 357 0 359 357 357 358 359 359 358 358 356 351 344 342 344 344 341 338 340 339 338 341 341 339 338 335 334 336 338 338 338 335 330 326 326 326 323 322 324 326 325 323 324 326 325 323 322 320 321 323 323 321 321 320 319 319 319 319
89 88 88 85 81 77 74 74 69 61 59 51 40 39 43 41 31 27 23 17 14 7 3 2 357 355 0 2 1 359 358 358 357 357 359 358 358 356 353 353 353 351 346 344 344 342 339 336 339 340 338 340 340 338 335 335 336 336 336 336 336 333 327 322 322 323 322 321 324 327 326 324 324 325 325 323 322 322 323 324 323 322 323 322 320 320 321 320
92 89 85 79 74 70 67 67 64 59 52 41 40 44 43 40 32 28 23 16 12 6 1 1 359 359 1 359 359 360 357 354 354 354 357 358 358 356 352 350 350 349 347 345 343 342 339 336 337 338 338 341 340 337 336 337 337 335 334 336 335 330 326 324 323 324 324 321 323 326 325 324 326 326 327 325 323 323 324 324 324 324 323 323 322 322 322 322
93 88 82 75 68 65 64 63 57 52 46 39 46 48 42 39 33 28 24 17 12 7 2 4 3 0 359 357 357 357 354 353 353 352 353 354 353 353 351 350 350 348 347 344 342 343 339 333 334 335 337 341 340 338 338 338 337 337 336 336 334 330 329 330 328 328 327 323 323 326 325 326 328 327 328 327 324 324 325 325 325 324 323 323 323 323 323 323
89 86 80 70 62 59 60 57 49 48 51 50 52 51 42 39 34 28 22 15 10 6 5 7 4 359 357 355 355 354 352 353 353 352 353 352 350 350 349 349 349 348 347 343 341 344 339 334 337 339 338 339 338 337 339 337 337 338 336 335 337 336 332 332 331 330 328 324 324 326 326 327 328 327 328 328 326 326 326 326 325 325 324 323 323 324 324 323
87 83 76 63 57 56 53 53 51 53 56 53 51 50 43 39 35 27 19 13 8 5 6 6 2 358 358 355 354 354 353 352 352 352 352 350 350 351 351 348 346 347 346 342 341 343 340 335 337 339 338 337 336 338 339 338 338 337 335 335 338 336 331 331 331 329 327 324 324 325 327 329 331 329 328 329 329 329 327 326 326 325 325 325 324 324 324 324
85 81 72 61 59 57 52 55 57 53 52 49 48 47 41 37 33 25 18 13 9 6 5 3 359 358 358 356 354 355 353 351 350 352 352 351 350 351 353 350 345 344 343 340 340 343 341 335 333 336 338 338 338 339 338 337 337 337 335 335 337 336 333 331 330 330 329 326 325 324 325 329 332 330 329 330 330 329 327 326 326 325 325 325 325 325 325 324
82 77 69 58 53 50 49 56 54 47 47 49 47 44 37 32 28 23 18 12 8 6 4 1 359 358 356 355 355 354 352 350 350 351 352 352 351 350 351 349 345 343 342 341 342 344 342 337 333 335 338 338 338 340 339 338 338 336 335 336 337 336 336 333 331 332 331 327 325 323 322 327 333 332 330 329 328 328 328 326 326 326 326 326 326 326 325 324
77 73 65 53 48 51 57 59 51 42 46 47 42 39 34 27 24 20 15 10 6 4 3 360 359 358 357 355 354 353 352 350 350 351 351 352 352 350 348 347 345 343 342 343 344 344 342 338 335 335 336 337 339 342 342 340 338 337 337 338 337 336 337 334 330 330 329 326 325 323 320 326 333 333 330 329 329 328 328 327 327 327 327 326 326 326 326 325
72 69 62 51 51 60 63 60 51 45 46 42 36 34 29 23 21 16 11 8 5 2 1 1 360 358 358 356 353 353 353 351 350 351 351 351 351 349 347 346 345 343 343 344 344 344 342 340 338 337 336 338 341 342 342 339 338 337 337 337 336 336 335 332 329 328 327 325 327 326 322 326 332 332 330 329 329 328 329 329 328 327 327 328 327 327 327 326
70 67 61 52 54 62 58 53 52 47 43 39 36 32 25 20 17 12 10 7 4 2 0 1 0 357 357 356 352 352 353 352 351 352 350 349 349 348 348 347 346 346 346 346 345 344 343 342 342 340 339 340 341 341 340 338 337 336 335 335 336 336 334 332 330 330 328 327 329 327 323 326 331 332 331 331 331 330 330 330 329 328 328 329 329 328 327 326
68 66 61 54 54 58 53 48 48 46 40 36 33 26 20 19 14 9 9 7 4 1 359 360 359 356 355 355 352 352 353 351 351 350 348 348 348 347 347 348 347 347 347 345 343 343 343 343 345 344 341 340 339 339 338 336 335 335 334 334 335 336 336 334 333 332 330 329 329 327 324 325 329 331 331 332 333 332 331 330 330 329 329 329 329 328 327 327
63 61 57 53 52 53 51 45 41 41 37 29 26 21 15 16 13 8 6 5 4 1 359 359 357 354 354 353 351 352 353 351 350 349 348 347 348 347 346 346 347 346 346 344 342 343 342 343 347 346 340 335 334 332 332 332 332 332 332 333 335 336 336 335 335 333 332 330 329 328 326 325 328 332 333 333 334 333 332 332 331 331 331 330 329 328 328 328
59 56 51 50 49 46 45 39 33 32 27 19 18 17 14 14 12 7 4 3 2 360 358 358 357 356 355 353 352 352 351 350 350 350 348 346 347 347 345 345 346 345 344 345 345 344 342 342 345 344 338 333 331 329 330 331 330 330 331 333 335 337 337 336 335 333 333 332 329 330 330 328 330 333 334 335 335 334 333 332 331 331 331 331 330 329 330 329
55 55 49 44 42 38 36 32 27 27 24 17 15 14 12 12 10 6 4 2 1 358 356 358 359 358 356 353 351 351 350 349 349 349 348 347 346 346 345 345 347 346 344 345 347 346 343 343 344 341 337 334 332 332 333 332 330 330 331 332 336 338 338 336 335 333 333 331 328 328 330 329 331 333 335 336 335 333 333 332 331 331 331 331 331 331 330 329
57 57 48 40 39 37 33 28 24 25 22 16 14 12 10 10 9 5 2 360 360 359 357 356 358 357 355 352 350 351 350 349 348 349 350 349 346 346 346 346 347 348 347 346 346 346 344 343 343 341 338 336 336 337 337 334 332 332 333 335 338 339 338 337 336 335 333 330 327 328 329 330 333 335 335 335 333 333 332 331 330 331 332 332 332 332 331 330
53 51 47 45 43 35 30 24 18 19 18 12 11 10 7 8 7 3 1 359 359 0 357 356 357 355 353 352 351 351 350 347 345 347 349 349 347 346 348 347 346 347 347 346 345 345 345 344 343 342 340 339 341 341 339 336 334 334 336 339 340 339 339 339 338 337 334 332 331 331 330 332 336 337 335 334 334 333 332 331 332 333 333 333 333 332 332 331
48 46 46 47 38 26 23 21 13 13 14 10 9 8 5 6 4 1 1 360 358 359 357 355 355 354 352 352 352 351 349 346 347 349 350 351 349 348 349 348 346 345 346 345 344 345 345 344 343 343 342 341 343 343 340 337 338 339 340 341 341 340 340 339 338 338 336 334 333 334 335 336 338 337 335 335 335 335 333 332 332 333 333 333 333 332 332 331
47 43 37 35 31 22 18 16 11 11 12 8 8 7 4 5 3 359 359 360 358 358 357 354 352 351 351 352 352 351 350 349 350 351 352 352 353 353 352 351 349 346 346 346 345 345 346 344 345 345 342 340 343 343 339 338 340 343 343 342 342 341 339 338 338 338 337 336 335 336 337 337 337 336 336 336 337 336 334 333 332 331 331 331 331 331 331 331